This is the latest recevied weather packets stored in our database for station/object DG6YGE-6. If no packets are shown the sender has not sent any weather packets the latest 10 day(s).
| Time | Temp. | Humidity | Pressure | Rain* | Wind** | Luminosity | Snow |
|---|---|---|---|---|---|---|---|
| 1788255551 | 18.33° C | 86% | 1017.5 hPa | 0 mm | - | 554 W/m² | - |
| 1788254951 | 17.78° C | 87% | 1017.6 hPa | 0 mm | - | 197 W/m² | - |
| 1788254351 | 17.78° C | 87% | 1017.5 hPa | 0 mm | - | 265 W/m² | - |
| 1788253751 | 17.78° C | 88% | 1017.4 hPa | 0 mm | - | 252 W/m² | - |
| 1788253152 | 17.22° C | 88% | 1017.4 hPa | 0 mm | - | 275 W/m² | - |
| 1788252551 | 17.22° C | 89% | 1017.4 hPa | 0 mm | - | 244 W/m² | - |
| 1788251951 | 17.22° C | 89% | 1017.3 hPa | 0 mm | - | 155 W/m² | - |
| 1788251351 | 17.22° C | 90% | 1017.3 hPa | 0 mm | - | 137 W/m² | - |
| 1788250751 | 17.22° C | 91% | 1017.1 hPa | 0 mm | - | 204 W/m² | - |
| 1788250152 | 16.67° C | 91% | 1017.1 hPa | 0 mm | - | 235 W/m² | - |
| 1788249551 | 16.67° C | 91% | 1017.1 hPa | 0 mm | - | 233 W/m² | - |
| 1788248951 | 16.11° C | 91% | 1017 hPa | 0 mm | - | 71 W/m² | - |
| 1788248351 | 16.11° C | 92% | 1017 hPa | 0 mm | - | 93 W/m² | - |
| 1788247751 | 16.11° C | 92% | 1016.8 hPa | 0 mm | - | 115 W/m² | - |
| 1788247151 | 16.11° C | 92% | 1016.7 hPa | 0 mm | - | 76 W/m² | - |
| 1788246552 | 16.11° C | 93% | 1016.5 hPa | 0 mm | - | 60 W/m² | - |
| 1788245952 | 16.11° C | 93% | 1016.6 hPa | 0 mm | - | 104 W/m² | - |
| 1788245351 | 16.11° C | 93% | 1016.6 hPa | 0 mm | - | 87 W/m² | - |
| 1788244751 | 15.56° C | 93% | 1016.4 hPa | 0 mm | - | 73 W/m² | - |
| 1788244151 | 15.56° C | 94% | 1016.3 hPa | 0 mm | - | 102 W/m² | - |
| 1788243551 | 15.56° C | 94% | 1016.3 hPa | 0 mm | - | 63 W/m² | - |
| 1788242951 | 15.56° C | 94% | 1016.2 hPa | 0 mm | - | 64 W/m² | - |
| 1788242351 | 15° C | 94% | 1016.1 hPa | 0 mm | - | 49 W/m² | - |
| 1788241751 | 15° C | 94% | 1016.1 hPa | 0 mm | - | 50 W/m² | - |
| 1788241151 | 15° C | 94% | 1015.9 hPa | 0 mm | - | 31 W/m² | - |
* Rain latest hour (hover to see other rain measurements)
** Current wind speed in m/s (hover to see current wind gust speed)